Location: Solstice Park, West Seattle
(47.5363°N, 122.3905°W)
Time: 08:57:49
(UTC-07:00)

ISS - Pass Details

Date: 14 May 2021
Orbit: 417 x 422 km, 51.6° (Epoch: 18 June)

Event Time Altitude Azimuth Distance (km) Brightness Sun altitude
Rises 21:30:33 0° 199° (SSW) 2,349 -0.2 -7.9°
Reaches altitude 10° 21:33:08 10° 178° (S) 1,492 -1.3 -8.2°
Maximum altitude 21:35:21 17° 137° (SE) 1,155 -2.2 -8.5°
Drops below altitude 10° 21:37:36 10° 95° (E) 1,501 -1.4 -8.8°
Sets 21:40:13 0° 74° (ENE) 2,371 -0.3 -9.1°
